{"data":{"norad_id":46114,"epoch":"2026-05-25T03:50:38.783040Z","epoch_age_seconds":71424,"freshness":"FRESH","line1":"1 46114U 20056C   26145.16017110  .00000034  00000+0  00000+0 0  9999","line2":"2 46114   0.0163 336.7369 0002261  85.5412 113.1479  1.00273431 21067","mean_motion":1.00273431,"eccentricity":0.0002261,"inclination_deg":0.0163,"raan_deg":336.7369,"arg_perigee_deg":85.5412,"mean_anomaly_deg":113.1479,"bstar":0,"rev_number":2106,"period_min":1436.0733303321,"perigee_km":35776.600192383,"apogee_km":35795.666875519,"semimajor_km":42164.270533951,"source":"CELESTRAK","updated_at":"2026-05-25T13:38:24.344816Z"}}